[[{"header":{"parameterUnit":"m.s-1","parameterCategory":1,"la1":30.2991,"la2":30.254,"lo1":-89.0895,"lo2":-89.0444,"dy":0.0017,"dx":0.0017,"nx":28,"ny":28,"refTime":"2025-02-24T03:00:00:Z","depth":0,"parameterNumber":2,"parameterNumberName":"U-component_of_WINDS"},"data":[0,0,0,0,0,0,0,0,0,0,0,0,0,0,0,0,0,0,0,0,0,0,0,0,0,0,0,0,0,0,0,0,0,0,0,0,0,0,0,0,0,0,0,0,0,0,0,0,0,0,0,0,0,0,0,0,0,0,-7.9522,-7.9523,0,-7.9579,-7.958,-7.958,-7.9392,-7.9386,-7.9381,-7.9375,-7.9432,-7.9439,-7.9445,0,0,0,0,0,0,0,0,0,0,0,0,0,-7.9249,-7.9255,-7.9522,-7.9523,-7.9524,-7.9579,-7.958,-7.958,-7.9393,-7.9386,-7.9379,-7.9373,-7.943,-7.9438,-7.9446,0,0,0,0,0,0,0,0,0,0,0,0,0,-7.9343,-7.9257,-7.9522,-7.9437,-7.943,-7.9579,-7.958,-7.9581,-7.9395,-7.9386,-7.9377,-7.937,-7.9427,-7.9437,-7.9447,-7.9681,0,0,-7.9478,-7.9483,0,0,0,0,0,0,0,0,-7.9338,-7.9353,-7.9449,-7.9443,-7.9435,-7.947,-7.9504,-7.9614,-7.9397,-7.9408,-7.9375,-7.9365,-7.9451,-7.9459,-7.9488,-7.9683,-7.9686,-7.9479,-7.9485,-7.949,-7.9493,0,0,0,0,0,0,0,-7.9331,-7.9349,-7.9544,-7.945,-7.9442,-7.9395,-7.9399,-7.9524,-7.9477,-7.9406,-7.9393,-7.9402,-7.9446,-7.9479,-7.9488,-7.9686,-7.9479,-7.9488,-7.9494,-7.9498,-8.0074,-8.0083,0,0,0,0,0,0,-7.9336,-7.9345,-7.9543,-7.9546,-7.9365,-7.9407,-7.9411,-7.9467,-7.9475,-7.9468,-7.9409,-7.9393,-7.9466,-7.9477,-7.949,-7.9762,-7.949,-7.9499,-7.9505,-8.0065,-8.0076,-8.0086,0,0,0,0,0,0,-7.9331,-7.9356,-7.954,-7.9442,-7.9462,-7.942,-7.9485,-7.9473,-7.9505,-7.9477,-7.9468,-7.9452,-7.946,-7.9475,-7.9634,-7.9762,-7.9504,-7.9513,-8.0054,-8.0068,-8.0081,-8.0311,0,0,0,0,0,0,-7.9324,-7.9355,-7.9444,-7.9446,-7.9468,-7.9686,-7.9493,-7.948,-7.9524,-7.9503,-7.9515,-7.9508,-7.9454,-7.962,-7.9644,-7.9771,-7.9521,-8.0042,-8.006,-8.0076,-8.0292,-8.0331,-8.0365,0,0,0,0,0,-7.9315,-7.9507,-7.945,-7.9474,-7.9579,-7.9693,-7.9706,-7.964,-7.9535,-7.9624,-7.9605,-7.9508,-7.9744,-7.9638,-7.9664,-7.9796,-8.0034,-8.0055,-8.0075,-8.0276,-8.0323,-8.0364,0,0,0,0,0,0,-7.9521,-7.9505,-7.9442,-7.964,-7.967,-7.9661,-7.9771,-7.9693,-7.9753,-7.9731,-7.9646,-7.965,-7.9825,-7.9825,-7.9708,-8.0021,-7.9871,-7.9897,-8.0014,-8.0059,-8.0095,-8.0091,-7.953,0,0,0,0,0,-7.959,-7.9685,-7.9665,-7.9842,-7.986,-7.9814,-7.9861,-7.9808,-7.9835,-7.9847,-7.9839,-7.9869,-7.9949,-8.0004,-8.0077,-8.0291,-8.029,-8.0394,-8.043,-8.046,-8.0485,-8.0597,-8.0643,-8.0154,-8.0153,-8.0153,0,0,-7.9732,-7.9735,-7.9801,-7.9884,-7.99,-8.0,-7.9826,-7.9939,-8.0012,-7.9863,-8.0013,-8.0009,-8.0036,-8.0224,-8.0306,-8.023,-8.0619,-8.0487,-8.0511,-8.0519,-8.0623,-8.0669,-8.0711,-8.0167,-8.0165,-8.0163,0,0,-8.0043,-8.0055,-8.0203,-8.0223,-8.0251,-8.0218,-8.0254,-8.0258,-8.025,-8.0399,-8.0289,-8.0374,-8.0515,-8.0538,-8.0569,-8.0887,-8.08,-8.0913,-8.1103,-8.1213,-8.1252,-8.1286,-8.1399,-8.1441,-8.0937,-8.0938,-8.0938,0,-8.0216,-8.0363,-8.0289,-8.041,-8.0449,-8.0319,-8.0468,-8.0491,-8.0541,-8.057,-8.0484,-8.0658,-8.0667,-8.0857,-8.0935,-8.0964,-8.1002,-8.0912,-8.1253,-8.1286,-8.1316,-8.1423,-8.1466,-8.0951,-8.095,-8.0948,-8.0947,0,-8.0575,-8.0678,-8.0794,-8.0846,-8.0898,-8.1032,-8.0978,-8.1039,-8.0981,-8.0958,-8.111,-8.1116,-8.1187,-8.1228,-8.1173,-8.1412,-8.1363,-8.1267,-8.1114,-8.1378,-8.1477,-8.1517,-8.0971,-8.0966,-8.0962,-8.0959,0,0,-8.1018,-8.1026,-8.107,-8.1092,-8.1112,-8.119,-8.1317,-8.1387,-8.1441,-8.148,-8.1584,-8.1705,-8.1616,-8.165,-8.1596,-8.1693,-8.1944,-8.1584,-8.1583,-8.165,-8.2207,-8.228,-8.2329,-8.1886,-8.1894,-8.19,-8.2204,0,-8.1323,-8.1543,-8.1479,-8.1699,-8.1793,-8.167,-8.1781,-8.1805,-8.1786,-8.1862,-8.184,-8.1928,-8.1803,-8.1823,-8.1914,-8.1895,-8.2055,-8.1872,-8.1982,-8.1987,-8.1979,-8.238,-8.2458,-8.2746,-8.2243,-8.2249,-8.2254,0,-8.1709,-8.1763,-8.1993,-8.1996,-8.2033,-8.2134,-8.2192,-8.2267,-8.2291,-8.227,-8.2309,-8.2234,-8.2358,-8.2205,-8.2374,-8.2251,-8.2292,-8.2289,-8.2299,-8.2307,-8.2137,-8.2399,-8.2836,-8.2879,-8.2314,-8.2309,-8.2305,0,-8.2009,-8.2139,-8.2292,-8.2315,-8.2323,-8.2396,-8.2403,-8.2418,-8.2464,-8.2515,-8.2543,-8.2608,-8.2644,-8.2695,-8.2639,-8.2532,-8.2817,-8.2659,-8.2802,-8.2804,-8.2868,-8.2865,-8.3318,-8.2895,-8.2894,-8.2894,-8.2893,0,-8.2357,-8.2502,-8.2427,-8.2522,-8.2681,-8.2605,-8.2764,-8.2756,-8.2771,-8.2861,-8.2759,-8.2846,-8.2766,-8.2846,-8.2803,-8.2949,-8.2966,-8.2952,-8.2939,-8.2962,-8.2964,-8.2988,-8.2966,-8.2905,-8.2902,-8.29,-8.2898,0,-8.272,-8.2675,-8.2835,-8.2829,-8.2831,-8.2948,-8.2942,-8.3029,-8.3002,-8.3118,-8.314,-8.3099,-8.3186,-8.3136,-8.3226,-8.3196,-8.3387,-8.3346,-8.338,-8.3369,-8.3515,-8.3502,-8.4,-8.4061,-8.3599,-8.3603,-8.3607,0,-8.2945,-8.3054,-8.3059,-8.3113,-8.3126,-8.3214,-8.326,-8.3189,-8.3241,-8.3276,-8.3359,-8.3438,-8.3497,-8.3643,-8.362,-8.3688,-8.3648,-8.3818,-8.3658,-8.3677,-8.3651,-8.3645,-8.3655,-8.385,-8.3856,-8.386,-8.3864,0,-8.3349,-8.3321,-8.3392,-8.3456,-8.3514,-8.356,-8.3598,-8.3647,-8.3576,-8.364,-8.3729,-8.3775,-8.3866,-8.3946,-8.4004,-8.4008,-8.3926,-8.3914,-8.3951,-8.3976,-8.399,-8.3984,-8.3468,-8.3903,-8.3899,-8.3896,-8.3894,-8.3893,-8.3649,-8.374,-8.3758,-8.384,-8.3861,-8.3898,-8.3979,-8.3963,-8.4036,-8.4105,-8.4058,-8.4163,-8.4183,-8.4251,-8.4267,-8.4347,-8.4279,-8.4333,-8.4346,-8.4361,-8.4381,-8.3977,-8.4358,-8.4356,-8.4355,-8.4354,-8.4353,0,-8.4048,-8.4054,-8.413,-8.4186,-8.425,-8.4165,-8.4202,-8.4262,-8.4355,-8.4381,-8.4441,-8.4543,-8.4619,-8.4602,-8.4671,-8.4738,-8.4702,-8.4759,-8.4753,-8.4756,-8.4438,-8.4399,-8.4787,-8.4787,-8.4787,-8.4787,-8.4787,-8.4787,-8.4264,-8.4412,-8.4387,-8.4544,-8.4548,-8.465,-8.4679,-8.4712,-8.4732,-8.485,-8.4913,-8.4901,-8.491,-8.4978,-8.5044,-8.5036,-8.5066,-8.5138,-8.5117,-8.4821,-8.4778,-8.4737,-8.47,-8.5145,-8.5145,-8.5427,-8.543,-8.5432]},{"header":{"parameterUnit":"m.s-1","parameterCategory":1,"la1":30.2991,"la2":30.254,"lo1":-89.0895,"lo2":-89.0444,"dy":0.0017,"dx":0.0017,"nx":28,"ny":28,"refTime":"2025-02-24T03:00:00:Z","depth":0,"parameterNumber":3,"parameterNumberName":"V-component_of_WINDS"},"data":[0,0,0,0,0,0,0,0,0,0,0,0,0,0,0,0,0,0,0,0,0,0,0,0,0,0,0,0,0,0,0,0,0,0,0,0,0,0,0,0,0,0,0,0,0,0,0,0,0,0,0,0,0,0,0,0,0,0,-1.0943,-1.0942,0,-1.0833,-1.0832,-1.0831,-1.0631,-1.0627,-1.0623,-1.062,-1.0514,-1.0515,-1.0516,0,0,0,0,0,0,0,0,0,0,0,0,0,-1.0988,-1.0988,-1.0943,-1.0942,-1.094,-1.0833,-1.0832,-1.083,-1.0632,-1.0627,-1.0622,-1.0618,-1.0514,-1.0515,-1.0516,0,0,0,0,0,0,0,0,0,0,0,0,0,-1.0933,-1.0988,-1.0943,-1.0828,-1.0817,-1.0834,-1.0832,-1.083,-1.0633,-1.0627,-1.0621,-1.0616,-1.0514,-1.0515,-1.0516,-1.0639,0,0,-1.052,-1.052,0,0,0,0,0,0,0,0,-1.0936,-1.0931,-1.0847,-1.0836,-1.0823,-1.074,-1.0809,-1.0766,-1.0634,-1.0703,-1.062,-1.0613,-1.0595,-1.0589,-1.0581,-1.0634,-1.0629,-1.052,-1.0521,-1.0521,-1.0521,0,0,0,0,0,0,0,-1.094,-1.0935,-1.09,-1.0846,-1.0832,-1.0784,-1.077,-1.08,-1.0683,-1.0696,-1.0682,-1.0671,-1.0587,-1.058,-1.0577,-1.0628,-1.052,-1.0521,-1.0522,-1.0522,-1.0778,-1.0783,0,0,0,0,0,0,-1.096,-1.0939,-1.0903,-1.0896,-1.0866,-1.0788,-1.0772,-1.0773,-1.0682,-1.0662,-1.0676,-1.0662,-1.0581,-1.0576,-1.0573,-1.0712,-1.0521,-1.0522,-1.0523,-1.0772,-1.0779,-1.0786,0,0,0,0,0,0,-1.0962,-1.0958,-1.0908,-1.0914,-1.0904,-1.0793,-1.0796,-1.0773,-1.0766,-1.0666,-1.0645,-1.069,-1.0576,-1.0571,-1.0624,-1.0706,-1.0523,-1.0524,-1.0764,-1.0774,-1.0782,-1.0991,0,0,0,0,0,0,-1.0964,-1.096,-1.1004,-1.0916,-1.0904,-1.0959,-1.08,-1.0775,-1.0768,-1.0749,-1.0674,-1.0656,-1.0571,-1.0623,-1.0625,-1.0704,-1.0525,-1.0757,-1.0769,-1.0779,-1.0977,-1.1007,-1.1032,0,0,0,0,0,-1.0966,-1.1069,-1.1007,-1.1004,-1.0956,-1.0964,-1.0958,-1.0856,-1.0775,-1.082,-1.0756,-1.0658,-1.0696,-1.063,-1.063,-1.0711,-1.0751,-1.0765,-1.0779,-1.0964,-1.1001,-1.1031,0,0,0,0,0,0,-1.1172,-1.1055,-1.0986,-1.1062,-1.1025,-1.0931,-1.0984,-1.0898,-1.0884,-1.0867,-1.0743,-1.0728,-1.0798,-1.0759,-1.0688,-1.0826,-1.0708,-1.0723,-1.0849,-1.0883,-1.091,-1.092,-1.0526,0,0,0,0,0,-1.1225,-1.1239,-1.1137,-1.1215,-1.1199,-1.1095,-1.1095,-1.102,-1.0977,-1.096,-1.09,-1.0864,-1.0867,-1.0872,-1.087,-1.0969,-1.0952,-1.1025,-1.1052,-1.1075,-1.1091,-1.1143,-1.1176,-1.0831,-1.083,-1.083,0,0,-1.1338,-1.1275,-1.1292,-1.1255,-1.1216,-1.1237,-1.1083,-1.111,-1.1125,-1.0965,-1.1011,-1.0966,-1.0917,-1.0995,-1.1026,-1.0965,-1.1182,-1.1093,-1.1112,-1.1115,-1.1161,-1.1194,-1.1223,-1.084,-1.0838,-1.0837,0,0,-1.1553,-1.1506,-1.1566,-1.1531,-1.1474,-1.1404,-1.1419,-1.1338,-1.1301,-1.1345,-1.1226,-1.1242,-1.125,-1.1221,-1.1207,-1.1412,-1.1324,-1.1415,-1.1561,-1.1613,-1.1641,-1.1664,-1.1741,-1.1769,-1.1429,-1.143,-1.143,0,-1.1701,-1.1723,-1.1609,-1.1644,-1.1632,-1.1486,-1.1548,-1.1519,-1.1467,-1.1463,-1.1394,-1.1402,-1.1358,-1.1428,-1.1478,-1.1471,-1.1487,-1.1424,-1.1645,-1.1668,-1.1688,-1.176,-1.1789,-1.1441,-1.144,-1.1439,-1.1438,0,-1.1909,-1.1927,-1.1983,-1.1934,-1.1927,-1.1976,-1.1872,-1.188,-1.1805,-1.1744,-1.1792,-1.1735,-1.1719,-1.1729,-1.1657,-1.179,-1.1754,-1.1667,-1.1547,-1.1735,-1.18,-1.1827,-1.1458,-1.1454,-1.1451,-1.1448,0,0,-1.2253,-1.2139,-1.2162,-1.2138,-1.2065,-1.2078,-1.212,-1.2103,-1.2114,-1.2082,-1.2117,-1.2127,-1.2046,-1.2031,-1.1954,-1.2,-1.217,-1.1907,-1.1905,-1.1962,-1.2317,-1.2386,-1.242,-1.2109,-1.2114,-1.2118,-1.2323,0,-1.2455,-1.252,-1.2419,-1.2508,-1.2525,-1.2386,-1.2423,-1.2384,-1.2328,-1.2336,-1.2273,-1.2284,-1.2175,-1.2165,-1.2204,-1.2142,-1.2241,-1.2125,-1.2145,-1.2147,-1.2166,-1.2453,-1.2525,-1.2721,-1.2347,-1.2351,-1.2354,0,-1.27,-1.2679,-1.277,-1.2692,-1.2695,-1.2731,-1.2707,-1.2715,-1.2669,-1.2625,-1.2608,-1.2517,-1.2556,-1.2437,-1.2492,-1.2416,-1.2417,-1.2388,-1.2393,-1.2395,-1.2265,-1.2466,-1.2781,-1.2812,-1.2393,-1.239,-1.2387,0,-1.2947,-1.294,-1.2994,-1.2978,-1.2887,-1.2916,-1.288,-1.2827,-1.2824,-1.2804,-1.2802,-1.2788,-1.2781,-1.2774,-1.2682,-1.2603,-1.275,-1.2622,-1.2718,-1.2721,-1.2758,-1.2758,-1.3082,-1.2753,-1.2753,-1.2752,-1.2752,0,-1.3185,-1.3247,-1.3103,-1.3138,-1.3204,-1.3087,-1.3156,-1.3106,-1.3061,-1.3085,-1.2963,-1.2989,-1.2864,-1.2877,-1.2806,-1.2864,-1.2861,-1.2829,-1.281,-1.2842,-1.2847,-1.2845,-1.2831,-1.276,-1.2758,-1.2757,-1.2755,0,-1.3473,-1.3378,-1.3429,-1.3338,-1.3317,-1.3371,-1.3294,-1.3324,-1.3258,-1.329,-1.3291,-1.3191,-1.32,-1.3106,-1.3098,-1.305,-1.3143,-1.3098,-1.3159,-1.3146,-1.3248,-1.3242,-1.3586,-1.3627,-1.3269,-1.3273,-1.3276,0,-1.3633,-1.3677,-1.3591,-1.3597,-1.3567,-1.3579,-1.3574,-1.3461,-1.3462,-1.3413,-1.3449,-1.3447,-1.344,-1.3462,-1.339,-1.3384,-1.334,-1.3461,-1.3339,-1.3371,-1.3347,-1.3347,-1.3353,-1.3489,-1.3493,-1.3497,-1.35,0,-1.3928,-1.3879,-1.3876,-1.3858,-1.3856,-1.3836,-1.3809,-1.3822,-1.3699,-1.3707,-1.3713,-1.3708,-1.3699,-1.3701,-1.368,-1.3645,-1.3555,-1.3538,-1.356,-1.3596,-1.3631,-1.3617,-1.3233,-1.3532,-1.3529,-1.3526,-1.3524,-1.3523,-1.4159,-1.4193,-1.4138,-1.414,-1.4107,-1.4084,-1.4108,-1.4045,-1.4048,-1.4031,-1.3964,-1.3984,-1.3937,-1.39,-1.3874,-1.389,-1.3832,-1.3863,-1.3872,-1.3883,-1.3903,-1.3625,-1.3885,-1.3884,-1.3883,-1.3883,-1.3882,0,-1.4451,-1.4409,-1.4411,-1.4376,-1.4379,-1.4288,-1.4254,-1.4263,-1.4281,-1.4244,-1.4239,-1.4249,-1.425,-1.4178,-1.4171,-1.4198,-1.4156,-1.42,-1.4199,-1.4194,-1.3954,-1.3937,-1.4234,-1.4234,-1.4234,-1.4234,-1.4234,-1.4234,-1.4604,-1.4657,-1.4603,-1.464,-1.4597,-1.4613,-1.4602,-1.4582,-1.4552,-1.4568,-1.4568,-1.4519,-1.447,-1.4458,-1.4456,-1.4435,-1.444,-1.45,-1.4466,-1.4244,-1.421,-1.4178,-1.4161,-1.4501,-1.4501,-1.4704,-1.4706,-1.4707]}]]